星链-5341 (STARLINK-5341 )

导读 | 星芒AI

STARLINK-5341 是 SpaceX Starlink 低轨卫星互联网项目中的一颗工作卫星,属于第53批发射的星链卫星之一。该卫星运行在约550公里的近地轨道,旨在为全球提供高速、低延迟的宽带互联网服务。它采用先进的相控阵天线和激光通信技术,以提高网络效率和覆盖范围。STARLINK-5341 与其他星链卫星协同工作,支持偏远地区和传统网络难以覆盖区域的互联网接入,推动全球数字连接的普及。

基本信息
目录编号:
55287
目录名称:
STARLINK-5341
国际标识:
2023-010U
轨道中心:
EARTH
卫星名称:
星链-5341
卫星全名:
星链-5341 (STARLINK-5341 )
卫星状态:
在轨 (已飞行1067 天)
发射日期:
2023-01-19 UTC
国别 :
美国 (US)
星等 :
--
轨道信息
数据来源 国际轨道数据 AOE轨道数据
星历时间 2025-12-21T05:27:39+0800
15小时前
查看轨道信息
2025-12-21T03:00:00+0800
18小时前
查看轨道信息
半长轴 6950.173km 6950.17km
偏心率 0.0002642 0.0002736
轨道倾角 69.998° 69.998°
近地点辐角 274.084° 272.835°
升交点赤经 203.270° 203.527°
平近点角 86.002° 254.313°
近地点 570.199km 570.131km
远地点 573.873km 573.935km
周期 96.107分钟 96.107分钟
每日圈数 14.983366 14.983376
详细信息
固有亮度:
5
最大亮度:
2.5
卫星平台:
Starlink v1.5
覆盖范围:
全球
运营商:
太空探索技术公司
运营商所在国:
美国
制造商(研发单位):
太空探索技术公司
制造商所在国:
美国
使用方式:
暂无
卫星简介
星链(Starlink)计划是由太空探索技术公司(SpaceX)提出的一个巨型低轨卫星互联网星座项目,计划在2019年至2024年间在太空搭建由约1.2万颗卫星组成的“星链”网络,其中1584颗将部署在地球上空550千米处的近地轨道,并从2020年开始工作。该卫星仍在工作。
2D轨道图
3D轨道图
轨道高度分析图
轨道倾角分析图
轨道综合分析图
查看轨道综合分析图